This is the latest recevied weather packets stored in our database for station/object KC5EZZ. If no packets are shown the sender has not sent any weather packets the latest 10 day(s).
| Time | Temp. | Humidity | Pressure | Rain* | Wind** | Luminosity | Snow |
|---|---|---|---|---|---|---|---|
| 1777653483 | 12.78° C | 95% | 0 hPa | 1.02 mm | - | - | - |
| 1777653183 | 11.67° C | 95% | 0 hPa | 1.02 mm | - | - | - |
| 1777652883 | 12.22° C | 95% | 0 hPa | 0.76 mm | - | - | - |
| 1777652583 | 12.78° C | 95% | 0 hPa | 1.27 mm | - | - | - |
| 1777652283 | 12.78° C | 95% | 0 hPa | 2.29 mm | - | - | - |
| 1777651983 | 11.67° C | 95% | 0 hPa | 2.79 mm | - | - | - |
| 1777651683 | 12.22° C | 95% | 0 hPa | 3.05 mm | - | - | - |
| 1777651383 | 12.78° C | 95% | 0 hPa | 3.05 mm | - | - | - |
| 1777651152 | 12.22° C | 95% | 0 hPa | 2.79 mm | - | - | - |
| 1777651083 | 12.22° C | 95% | 0 hPa | 2.79 mm | - | - | - |
| 1777650783 | 12.78° C | 95% | 0 hPa | 2.79 mm | - | - | - |
| 1777650483 | 12.22° C | 95% | 0 hPa | 2.54 mm | - | - | - |
| 1777650183 | 12.22° C | 95% | 0 hPa | 2.54 mm | - | - | - |
| 1777649883 | 12.78° C | 95% | 0 hPa | 2.54 mm | - | - | - |
| 1777649583 | 12.78° C | 95% | 0 hPa | 2.79 mm | - | - | - |
| 1777649283 | 12.22° C | 95% | 0 hPa | 2.79 mm | - | - | - |
| 1777648983 | 12.78° C | 95% | 0 hPa | 2.29 mm | - | - | - |
| 1777648683 | 12.78° C | 95% | 0 hPa | 1.27 mm | - | - | - |
| 1777648383 | 12.78° C | 95% | 0 hPa | 0.76 mm | - | - | - |
| 1777648083 | 11.67° C | 95% | 0 hPa | 0.25 mm | - | - | - |
| 1777647783 | 12.22° C | 95% | 0 hPa | 0.25 mm | - | - | - |
| 1777647666 | 11.67° C | 95% | 0 hPa | 0.51 mm | - | - | - |
| 1777647483 | 11.67° C | 95% | 0 hPa | 0.51 mm | - | - | - |
| 1777647183 | 12.22° C | 95% | 0 hPa | 0.51 mm | - | - | - |
| 1777646924 | 12.22° C | 95% | 0 hPa | 0.51 mm | - | - | - |
* Rain latest hour (hover to see other rain measurements)
** Current wind speed in m/s (hover to see current wind gust speed)